Weather reports worldwide

Advertisment
Calvi, France (7754): temperature & dewpoint: 07.07.2020 06:00:00 - 13.07.2020 06:00:00 (CEST)Calvi, France (7754): temperature 5cm: 07.07.2020 06:00:00 - 13.07.2020 06:00:00 (CEST)Calvi, France (7754): wind speed & gusts: 07.07.2020 06:00:00 - 13.07.2020 06:00:00 (CEST)Calvi, France (7754): wind direction: 07.07.2020 06:00:00 - 13.07.2020 06:00:00 (CEST)Calvi, France (7754): reduced air pressure: 07.07.2020 06:00:00 - 13.07.2020 06:00:00 (CEST)Calvi, France (7754): visibility: 07.07.2020 06:00:00 - 13.07.2020 06:00:00 (CEST)Calvi, France (7754): precipitation: 07.07.2020 06:00:00 - 13.07.2020 06:00:00 (CEST)
Date & Time tt [°C] td [°C] tt 5cm [°C] ff [km/h] ff [kn] fx [km/h] fx [kn] dd ppp [hPa] vv [km] rr [mm]
13.07.2020 06:00:00 20,7 18,6 20,3 7 4 14 7 SSW 1016,4 22 0,0
13.07.2020 05:00:00 21,2 18,4 20,7 7 4 9 5 SSE 1016,4 27 0,0
13.07.2020 04:00:00 22,1 18,9 21,4 2 1 7 4 S 1016,4 26 0,0
13.07.2020 03:00:00 22,3 18,9 22,0 4 2 7 4 S 1016,6 27 0,0
13.07.2020 02:00:00 22,9 19,3 22,5 4 2 11 6 SSW 1016,4 30 0,0
13.07.2020 01:00:00 23,2 19,6 23,0 6 4 14 7 NE 1016,4 30 0,0
13.07.2020 00:00:00 23,9 20,2 23,1 11 6 18 10 SSW 1016,4 31 0,0
12.07.2020 23:00:00 24,2 20,3 24,0 13 7 18 10 SSE 1016,8 31 0,0
12.07.2020 22:00:00 25,0 21,1 24,9 11 6 21 11 NW 1016,5 31 0,0
12.07.2020 21:00:00 25,9 20,5 26,0 9 5 19 10 WNW 1015,6 30 0,0
12.07.2020 20:00:00 27,5 19,8 28,7 9 5 21 12 NW 1015,3 38 0,0
12.07.2020 19:00:00 29,3 20,2 32,9 12 6 29 16 NNW 1015,3 19 0,0
12.07.2020 18:00:00 30,3 20,3 34,7 19 10 31 17 N 1015,3 30 0,0
12.07.2020 17:00:00 29,3 20,7 32,8 16 9 32 17 NNW 1016,0 19 0,0
12.07.2020 16:00:00 28,7 21,0 31,9 16 9 39 21 NW 1016,1 20 0,0
12.07.2020 15:00:00 28,8 21,1 34,8 21 12 36 20 NNW 1016,2 41 0,0
12.07.2020 14:00:00 29,7 20,3 33,3 19 10 32 18 NNW 1016,3 19 0,0
12.07.2020 13:00:00 29,1 20,5 32,6 15 8 28 15 N 1016,3 20 0,0
12.07.2020 12:00:00 28,3 21,8 31,1 14 8 25 13 NNW 1016,5 40 0,0
12.07.2020 11:00:00 27,3 20,6 30,3 13 7 23 12 N 1016,4 33 0,0
12.07.2020 10:00:00 26,6 20,7 29,5 10 5 21 11 N 1016,0 20 0,0
12.07.2020 09:00:00 26,0 19,6 27,9 5 3 9 5 N 1015,8 34 0,0
12.07.2020 08:00:00 24,4 19,7 21,7 2 1 10 5 SE 1015,6 20 0,0
12.07.2020 07:00:00 20,9 18,3 19,0 6 3 11 6 S 1015,5 26 0,0
12.07.2020 06:00:00 19,2 17,0 19,0 10 6 14 8 SSE 1015,2 23 0,0
12.07.2020 05:00:00 19,7 17,1 19,0 7 4 11 6 S 1014,8 20 0,0
12.07.2020 04:00:00 19,3 16,7 19,1 3 2 9 5 S 1014,7 23 0,0
12.07.2020 03:00:00 20,1 17,5 19,7 4 2 11 6 SSE 1014,8 24 0,0
12.07.2020 02:00:00 20,9 17,7 20,6 4 2 11 6 S 1014,7 26 0,0
12.07.2020 01:00:00 23,3 20,2 22,9 8 5 14 8 WSW 1014,7 26 0,0
12.07.2020 00:00:00 24,1 20,8 23,9 10 6 24 13 NW 1014,8 27 0,0
11.07.2020 23:00:00 24,9 19,9 24,4 8 5 24 13 N 1014,5 32 0,0
11.07.2020 22:00:00 27,2 15,6 26,3 3 2 24 13 SW 1013,8 48 0,0
11.07.2020 21:00:00 29,1 14,9 28,8 10 6 35 19 S 1013,3 59 0,0
11.07.2020 20:00:00 30,8 14,0 32,2 17 9 44 24 SSW 1012,7 40 0,0
11.07.2020 19:00:00 31,1 16,3 33,7 24 13 39 21 SSW 1012,9 37 0,0
11.07.2020 18:00:00 32,2 15,2 35,7 26 14 43 23 SW 1013,0 35 0,0
11.07.2020 17:00:00 33,3 14,4 37,0 26 14 44 24 SW 1013,1 50 0,0
11.07.2020 16:00:00 34,3 13,7 38,4 23 13 43 23 WSW 1013,2 49 0,0
11.07.2020 15:00:00 34,2 16,1 37,7 24 13 42 23 SW 1013,2 20 0,0
11.07.2020 14:00:00 34,2 15,6 36,2 26 14 40 22 SW 1013,6 47 0,0
11.07.2020 13:00:00 35,1 14,4 37,2 22 12 32 18 SW 1013,6 51 0,0
11.07.2020 12:00:00 34,0 14,0 35,2 19 11 31 17 SW 1013,8 60 0,0
11.07.2020 11:00:00 31,5 17,0 33,4 7 4 20 11 NNE 1014,0 60 0,0
11.07.2020 10:00:00 29,5 15,2 30,9 7 4 15 8 N 1014,4 46 0,0
11.07.2020 09:00:00 27,7 13,2 25,6 10 5 14 8 N 1014,3 55 0,0
11.07.2020 08:00:00 23,4 14,4 21,4 4 2 8 4 SSW 1014,4 42 0,0
11.07.2020 07:00:00 20,5 13,9 19,0 4 2 11 6 W 1014,6 40 0,0
11.07.2020 06:00:00 19,3 13,7 18,8 3 1 13 7 NNE 1014,5 47 0,0
11.07.2020 05:00:00 19,1 13,9 18,3 8 4 11 6 SSW 1014,1 51 0,0
11.07.2020 04:00:00 19,4 14,4 18,9 4 2 14 8 E 1014,2 51 0,0
11.07.2020 03:00:00 19,6 14,6 18,7 8 5 15 8 S 1014,6 45 0,0
11.07.2020 02:00:00 20,0 14,8 19,5 3 2 13 7 SSW 1015,2 44 0,0
11.07.2020 01:00:00 20,4 15,0 20,0 6 3 15 8 S 1015,4 52 0,0
11.07.2020 00:00:00 20,6 15,4 20,1 8 4 12 6 S 1016,3 46 0,0
10.07.2020 23:00:00 21,4 16,1 21,1 5 3 9 5 SSW 1016,2 42 0,0
10.07.2020 22:00:00 23,3 16,6 22,5 3 1 15 8 E 1015,7 54 0,0
10.07.2020 21:00:00 24,1 17,6 24,2 9 5 16 9 E 1015,3 60 0,0
10.07.2020 20:00:00 25,1 17,8 26,3 11 6 22 12 NE 1014,9 58 0,0
10.07.2020 19:00:00 26,1 18,2 28,9 16 9 22 12 N 1014,5 56 0,0
10.07.2020 18:00:00 27,2 17,1 32,3 13 7 23 12 N 1014,4 46 0,0
10.07.2020 17:00:00 27,9 15,9 34,2 18 10 27 14 N 1014,7 60 0,0
10.07.2020 16:00:00 28,2 17,1 32,7 18 10 34 18 N 1015,0 60 0,0
10.07.2020 15:00:00 29,0 14,8 33,4 24 13 38 20 N 1015,1 58 0,0
10.07.2020 14:00:00 29,8 15,1 34,9 28 15 51 28 NNE 1015,5 54 0,0
10.07.2020 13:00:00 30,9 14,9 34,8 12 7 49 27 NNW 1015,6 54 0,0
10.07.2020 12:00:00 30,7 15,2 31,1 12 7 32 17 NW 1016,0 39 0,0
10.07.2020 11:00:00 27,4 17,8 28,2 15 8 23 12 N 1016,5 20 0,0
10.07.2020 10:00:00 27,0 16,9 28,9 17 9 25 13 N 1016,5 55 0,0
10.07.2020 09:00:00 25,8 17,4 28,3 11 6 16 9 N 1016,7 55 0,0
10.07.2020 08:00:00 25,2 13,1 20,5 2 1 6 4 NNE 1016,2 59 0,0
10.07.2020 07:00:00 19,7 12,2 16,8 3 2 12 6 SSW 1015,7 54 0,0
10.07.2020 06:00:00 17,6 11,6 16,3 8 5 12 6 S 1015,5 42 0,0
10.07.2020 05:00:00 17,4 11,7 16,5 8 4 13 7 S 1016,0 53 0,0
10.07.2020 04:00:00 18,3 11,8 17,2 8 4 15 8 S 1016,4 57 0,0
10.07.2020 03:00:00 18,3 11,8 17,1 4 2 14 8 S 1016,4 18 0,0
10.07.2020 02:00:00 18,3 12,1 17,3 10 6 13 7 S 1016,7 40 0,0
10.07.2020 01:00:00 18,7 12,0 18,0 5 3 11 6 SSE 1016,8 48 0,0
10.07.2020 00:00:00 20,1 12,6 19,8 6 4 14 8 S 1016,6 59 0,0
09.07.2020 23:00:00 21,4 13,6 20,8 7 4 12 6 S 1017,0 57 0,0
09.07.2020 22:00:00 22,2 16,7 21,8 5 3 8 4 SSW 1016,9 48 0,0
09.07.2020 21:00:00 24,3 18,5 24,5 6 4 13 7 NNE 1016,4 59 0,0
09.07.2020 20:00:00 26,6 15,6 29,5 10 5 19 10 N 1016,3 60 0,0
09.07.2020 19:00:00 27,2 17,9 31,6 14 8 23 12 N 1016,3 53 0,0
09.07.2020 18:00:00 27,9 17,4 33,4 19 10 28 15 N 1016,5 60 0,0
09.07.2020 17:00:00 28,3 18,4 34,3 23 12 31 17 N 1016,9 20 0,0
09.07.2020 16:00:00 28,4 17,6 35,3 19 10 28 15 N 1017,1 56 0,0
09.07.2020 15:00:00 28,8 17,0 34,4 20 11 31 17 N 1017,5 55 0,0
09.07.2020 14:00:00 28,7 16,6 32,5 23 13 35 19 N 1017,6 57 0,0
09.07.2020 13:00:00 28,9 18,7 32,9 24 13 32 18 N 1017,6 60 0,0
09.07.2020 12:00:00 28,3 19,2 31,4 19 10 26 14 N 1017,6 60 0,0
09.07.2020 11:00:00 28,0 17,2 31,2 15 8 23 12 N 1017,2 60 0,0
09.07.2020 10:00:00 27,4 17,0 29,8 12 7 16 9 N 1016,9 56 0,0
09.07.2020 09:00:00 28,1 14,3 27,5 4 2 11 6 N 1016,6 29 0,0
09.07.2020 08:00:00 25,0 13,2 21,7 2 1 7 4 SW 1016,6 46 0,0
09.07.2020 07:00:00 20,6 11,8 17,0 5 3 11 6 S 1017,0 43 0,0
09.07.2020 06:00:00 18,1 11,2 17,1 4 2 9 5 SSW 1017,0 16 0,0
09.07.2020 05:00:00 18,7 11,0 17,9 6 3 11 6 S 1016,7 59 0,0
09.07.2020 04:00:00 18,9 11,2 18,5 5 3 11 6 SSW 1016,7 17 0,0
09.07.2020 03:00:00 19,9 11,4 18,6 5 3 12 6 S 1016,9 59 0,0
09.07.2020 02:00:00 19,2 11,2 18,7 5 3 10 5 S 1017,1 59 0,0
09.07.2020 01:00:00 21,0 11,3 19,5 8 4 13 7 SSW 1017,1 59 0,0
09.07.2020 00:00:00 21,3 11,6 20,1 10 5 14 7 S 1016,9 56 0,0
08.07.2020 23:00:00 21,2 11,5 20,9 5 3 14 7 S 1016,4 58 0,0
08.07.2020 22:00:00 23,2 12,2 22,9 11 6 14 8 S 1016,3 48 0,0
08.07.2020 21:00:00 26,0 13,8 25,3 4 2 11 6 SE 1015,7 50 0,0
08.07.2020 20:00:00 28,1 13,6 30,8 7 4 19 10 NNW 1015,4 59 0,0
08.07.2020 19:00:00 28,7 12,2 33,0 10 6 18 10 NNW 1015,5 46 0,0
08.07.2020 18:00:00 28,6 12,9 33,9 11 6 21 11 NNW 1015,8 47 0,0
08.07.2020 17:00:00 27,6 15,3 34,3 15 8 26 14 NNW 1016,2 55 0,0
08.07.2020 16:00:00 28,2 15,8 34,8 15 8 29 15 NNW 1016,2 51 0,0
08.07.2020 15:00:00 28,6 14,4 30,3 16 9 29 16 NNW 1016,1 40 0,0
08.07.2020 14:00:00 27,9 14,5 32,1 18 10 32 18 NW 1016,1 58 0,0
08.07.2020 13:00:00 28,3 14,9 31,9 16 9 33 18 NW 1016,1 54 0,0
08.07.2020 12:00:00 28,6 16,5 32,0 20 11 35 19 NNW 1015,9 49 0,0
08.07.2020 11:00:00 29,1 15,2 31,2 16 9 30 16 NW 1015,5 20 0,0
08.07.2020 10:00:00 29,3 13,9 29,6 18 10 28 15 N 1015,2 38 0,0
08.07.2020 09:00:00 27,1 18,4 27,9 7 4 15 8 N 1015,2 29 0,0
08.07.2020 08:00:00 24,9 18,1 21,5 3 1 7 4 SSW 1015,2 36 0,0
08.07.2020 07:00:00 20,3 16,5 18,8 3 2 13 7 SSW 1014,9 43 0,0
08.07.2020 06:00:00 18,9 16,3 18,1 8 4 12 6 S 1014,5 12 0,0
08.07.2020 05:00:00 19,3 16,3 18,9 4 2 12 6 SSE 1014,1 38 0,0
08.07.2020 04:00:00 19,8 16,6 19,6 10 5 14 8 S 1014,2 26 0,0
08.07.2020 03:00:00 20,0 16,4 19,7 8 5 10 6 S 1014,3 39 0,0
08.07.2020 02:00:00 19,8 15,9 19,2 7 4 10 6 S 1014,5 42 0,0
08.07.2020 01:00:00 20,9 16,3 20,2 3 2 6 3 S 1014,4 39 0,0
08.07.2020 00:00:00 21,7 16,9 21,2 3 2 8 4 SSW 1014,2 39 0,0
07.07.2020 23:00:00 23,1 17,3 22,5 3 2 10 5 S 1013,7 40 0,0
07.07.2020 22:00:00 24,7 17,7 24,2 6 3 9 5 S 1013,1 44 0,0
07.07.2020 21:00:00 26,3 17,9 26,3 5 3 19 10 WNW 1012,2 48 0,0
07.07.2020 20:00:00 27,2 18,5 29,4 13 7 23 12 WNW 1011,7 43 0,0
07.07.2020 19:00:00 30,0 17,8 33,8 16 8 36 20 N 1011,2 36 0,0
07.07.2020 18:00:00 30,3 18,1 34,8 26 14 39 21 N 1010,9 56 0,0
07.07.2020 17:00:00 30,8 18,2 36,5 25 14 43 23 N 1011,0 46 0,0
07.07.2020 16:00:00 30,6 19,0 35,4 26 14 46 25 N 1010,8 20 0,0
07.07.2020 15:00:00 30,6 19,0 35,5 29 15 46 25 N 1010,7 31 0,0
07.07.2020 14:00:00 30,3 20,0 33,0 28 15 41 22 N 1010,2 20 0,0
07.07.2020 13:00:00 29,8 20,9 31,8 29 15 40 22 N 1009,9 48 0,0
07.07.2020 12:00:00 28,2 18,9 30,2 20 11 35 19 NNW 1010,0 51 0,0
07.07.2020 11:00:00 26,6 21,6 28,4 17 9 32 17 NNW 1009,8 19 0,0
07.07.2020 10:00:00 27,0 20,6 29,5 17 9 31 17 NNW 1009,2 19 0,0
07.07.2020 09:00:00 26,5 20,6 26,6 10 6 27 15 N 1008,8 22 0,0
07.07.2020 08:00:00 24,0 19,9 21,5 5 3 8 4 SSW 1008,1 20 0,0
07.07.2020 07:00:00 20,5 18,3 19,2 5 3 11 6 SW 1007,7 23 0,0
07.07.2020 06:00:00 20,0 18,1 18,8 10 5 14 8 S 1007,3 23 0,0

tt = temperature
td = dewpoint
tt 5cm = temperature 5cm
ff = wind speed
fx = gusts
dd = wind direction
ppp = reduced air pressure
vv = visibility
rr = precipitation

Next stations